Lexington, KY

3:34 AM EDT on April 22, 2018 (GMT -0400)
Blue Grass

Weather History for KLEX - October, 2014

Change the Weather History Date:

Wednesday, October 15, 2014

  Actual Average Record
Temperature  
Mean Temperature 59 °F 57 °F  
Max Temperature 61 °F 68 °F 88 °F (1897)
Min Temperature 56 °F 47 °F 27 °F (1937)
Degree Days  
Heating Degree Days 6 8  
Month to date heating degree days 67 99  
Since 1 July heating degree days 97 153  
Cooling Degree Days 0 1  
Month to date cooling degree days 25 19  
Year to date cooling degree days 1272 1182  
Growing Degree Days 8 (Base 50)    
Moisture  
Dew Point 52 °F    
Average Humidity 79    
Maximum Humidity 86    
Minimum Humidity 72    
Precipitation  
Precipitation 0.15 in 0.10 in 0.91 in (1974)
Month to date precipitation 3.49 1.46  
Year to date precipitation 47.57 36.04  
Snow  
Snow 0.00 in 0.00 in 0.00 in ()
Month to date snowfall 0.0 0.0  
Since 1 July snowfall 0.0 0.0  
Since 1 September snowfall 0.0 0.0  
Snow Depth 0.00 in    
Sea Level Pressure  
Sea Level Pressure 29.78 in    
Wind  
Wind Speed 9 mph (SSW)    
Max Wind Speed 18 mph    
Max Gust Speed 24 mph    
Visibility 8 miles    
Events Rain    
T = Trace of Precipitation, MM = Missing Value Source: NWS Daily Summary

Daily Weather History Graph

Daily Weather History Graph

Search for Another Location

Airport or City:

Astronomy

Oct. 15, 2014 Rise Set
Actual Time 7:47 AM EDT 7:00 PM EDT
Civil Twilight 7:20 AM EDT 7:27 PM EDT
Nautical Twilight 6:49 AM EDT 7:57 PM EDT
Astronomical Twilight 6:19 AM EDT 8:28 PM EDT
Moon 12:09 AM EDT (10/15) 2:26 PM EDT (10/15)
Length of Visible Light 12h 06m
Length of Day
11h 13m
Waning Gibbous, 51% of the Moon is Illuminated
Oct 15
Waning Gibbous
Oct 15
Last Quarter
Oct 23
New
Oct 30
First Quarter
Nov 6
Full

Hourly Weather History & Observations

Time (EDT) Temp. Dew Point Humidity Pressure Visibility Wind Dir Wind Speed Gust Speed Precip Events Conditions
12:54 AM 60.1 °F 52.0 °F 75% 29.77 in 10.0 mi South 12.7 mph - N/A   Overcast
1:37 AM 59.0 °F 52.0 °F 78% 29.79 in 10.0 mi SSW 11.5 mph - 0.00 in   Overcast
1:54 AM 59.0 °F 52.0 °F 78% 29.78 in 10.0 mi SW 10.4 mph - 0.00 in   Overcast
2:54 AM 57.9 °F 53.1 °F 84% 29.78 in 10.0 mi South 6.9 mph - N/A   Overcast
3:54 AM 55.9 °F 52.0 °F 87% 29.77 in 10.0 mi South 8.1 mph - N/A   Mostly Cloudy
4:54 AM 57.0 °F 52.0 °F 83% 29.76 in 10.0 mi South 6.9 mph - N/A   Overcast
5:54 AM 55.9 °F 52.0 °F 87% 29.77 in 7.0 mi South 8.1 mph - 0.00 in Rain Light Rain
6:18 AM 55.9 °F 52.0 °F 87% 29.79 in 7.0 mi South 8.1 mph - 0.01 in Rain Light Rain
6:31 AM 55.9 °F 52.0 °F 87% 29.79 in 3.0 mi South 8.1 mph - 0.01 in Rain Light Rain
6:51 AM 55.4 °F 51.8 °F 88% 29.79 in 10.0 mi SSW 8.1 mph - 0.02 in Rain Light Rain
6:54 AM 55.9 °F 51.1 °F 84% 29.77 in 10.0 mi SSW 8.1 mph - 0.02 in   Overcast
7:54 AM 55.9 °F 52.0 °F 87% 29.78 in 10.0 mi South 6.9 mph - N/A   Overcast
8:24 AM 55.9 °F 52.0 °F 87% 29.79 in 10.0 mi South 10.4 mph - N/A   Overcast
8:54 AM 55.9 °F 51.1 °F 84% 29.79 in 10.0 mi South 9.2 mph - N/A   Overcast
9:09 AM 55.9 °F 51.1 °F 84% 29.80 in 10.0 mi South 12.7 mph - N/A   Overcast
9:54 AM 57.0 °F 50.0 °F 77% 29.78 in 10.0 mi SSW 13.8 mph - N/A   Overcast
10:23 AM 57.9 °F 50.0 °F 75% 29.80 in 10.0 mi South 10.4 mph - N/A   Overcast
10:54 AM 57.9 °F 51.1 °F 78% 29.78 in 10.0 mi South 9.2 mph - N/A   Overcast
11:54 AM 60.1 °F 51.1 °F 72% 29.78 in 10.0 mi SSW 12.7 mph - N/A   Overcast
12:43 PM 59.0 °F 50.0 °F 72% 29.78 in 10.0 mi SSW 13.8 mph - 0.00 in Rain Light Rain
12:54 PM 61.0 °F 51.1 °F 70% 29.77 in 10.0 mi SSW 10.4 mph - 0.00 in   Overcast
1:24 PM 57.9 °F 51.1 °F 78% 29.78 in 6.0 mi SSW 11.5 mph 21.9 mph 0.00 in Rain Light Rain
1:54 PM 57.0 °F 52.0 °F 83% 29.77 in 9.0 mi SSW 10.4 mph - 0.01 in   Overcast
2:18 PM 55.9 °F 52.0 °F 87% 29.77 in 2.0 mi SSW 9.2 mph - 0.02 in Rain Rain
2:28 PM 57.0 °F 53.1 °F 87% 29.77 in 7.0 mi SSW 9.2 mph - 0.03 in Rain Light Rain
2:31 PM 57.9 °F 53.1 °F 84% 29.77 in 4.0 mi SSW 8.1 mph - 0.03 in Rain Light Rain
2:54 PM 57.0 °F 53.1 °F 87% 29.76 in 4.0 mi SSW 10.4 mph - 0.04 in Rain Light Rain
3:54 PM 57.9 °F 53.1 °F 84% 29.76 in 10.0 mi SW 8.1 mph - 0.01 in   Overcast
4:02 PM 57.9 °F 53.1 °F 84% 29.77 in 10.0 mi SW 11.5 mph 18.4 mph N/A   Overcast
4:14 PM 57.9 °F 52.0 °F 81% 29.77 in 10.0 mi WSW 10.4 mph - N/A   Overcast
4:34 PM 57.0 °F 53.1 °F 87% 29.77 in 3.0 mi SW 11.5 mph - 0.00 in Rain Light Rain
4:54 PM 57.0 °F 53.1 °F 87% 29.76 in 10.0 mi SSW 8.1 mph - 0.01 in Rain Light Rain
4:59 PM 57.0 °F 53.1 °F 87% 29.77 in 3.0 mi SSW 8.1 mph - 0.00 in   Overcast
5:02 PM 57.0 °F 53.1 °F 87% 29.77 in 3.0 mi SSW 10.4 mph - 0.00 in Rain Light Rain
5:20 PM 57.0 °F 53.1 °F 87% 29.77 in 7.0 mi SSW 6.9 mph - 0.01 in Rain Light Rain
5:32 PM 57.0 °F 53.1 °F 87% 29.77 in 9.0 mi SSW 8.1 mph - 0.01 in   Overcast
5:54 PM 57.0 °F 53.1 °F 87% 29.77 in 10.0 mi SSW 10.4 mph - 0.01 in   Overcast
6:15 PM 57.0 °F 53.1 °F 87% 29.78 in 5.0 mi SSW 8.1 mph - 0.00 in Rain Light Rain
6:24 PM 57.0 °F 53.1 °F 87% 29.78 in 4.0 mi SSW 6.9 mph - 0.00 in Rain Light Rain
6:32 PM 57.0 °F 53.1 °F 87% 29.78 in 10.0 mi SSW 6.9 mph - 0.01 in   Overcast
6:54 PM 57.0 °F 52.0 °F 83% 29.78 in 7.0 mi SSW 9.2 mph - 0.01 in   Overcast
7:34 PM 55.9 °F 52.0 °F 87% 29.78 in 8.0 mi SSW 8.1 mph - 0.00 in Rain Light Rain
7:54 PM 55.9 °F 53.1 °F 90% 29.78 in 4.0 mi SSW 6.9 mph - 0.00 in Rain Light Rain
8:54 PM 55.9 °F 52.0 °F 87% 29.77 in 7.0 mi SSW 9.2 mph - 0.02 in   Overcast
9:54 PM 55.9 °F 53.1 °F 90% 29.78 in 4.0 mi SSW 6.9 mph - 0.00 in Rain Light Rain
10:54 PM 55.9 °F 53.1 °F 90% 29.78 in 4.0 mi SW 6.9 mph - 0.00 in   Overcast
11:54 PM 55.9 °F 52.0 °F 87% 29.76 in 4.0 mi SW 9.2 mph - 0.01 in Rain Light Rain